| time (UTC) | temp F | wind direction | speed MPH | gust MPH | rain 1hr in | rain 24hr in | rain mn in | humidity % | barometer mb |
| 20260904102055 | 63 | 307 | 0.0 | 3.0 | 0.00 | 0.06 | 0.00 | 97 | 1008.9 |
| 20260904101555 | 63 | 308 | 0.0 | 1.0 | 0.00 | 0.06 | 0.00 | 97 | 1008.9 |
| 20260904101056 | 63 | 308 | 0.0 | 1.0 | 0.00 | 0.06 | 0.00 | 97 | 1008.9 |
| 20260904100553 | 63 | 308 | 0.0 | 3.0 | 0.00 | 0.06 | 0.00 | 97 | 1008.9 |
| 20260904100054 | 63 | 308 | 0.0 | 4.0 | 0.00 | 0.07 | 0.00 | 97 | 1008.9 |
| 20260904095654 | 63 | 300 | 0.0 | 4.0 | 0.00 | 0.07 | 0.00 | 97 | 1009.0 |
| 20260904095053 | 63 | 323 | 1.0 | 5.0 | 0.00 | 0.07 | 0.00 | 97 | 1008.9 |
| 20260904094555 | 63 | 325 | 1.0 | 5.0 | 0.00 | 0.07 | 0.00 | 97 | 1008.8 |
| 20260904094053 | 63 | 328 | 1.0 | 5.0 | 0.00 | 0.07 | 0.00 | 97 | 1008.8 |
| 20260904093553 | 63 | 296 | 1.0 | 4.0 | 0.00 | 0.07 | 0.00 | 97 | 1008.7 |
| 20260904093052 | 63 | 290 | 1.0 | 4.0 | 0.00 | 0.07 | 0.00 | 97 | 1008.7 |
| 20260904092552 | 63 | 343 | 0.0 | 3.0 | 0.00 | 0.07 | 0.00 | 97 | 1008.6 |
| 20260904092053 | 63 | 255 | 1.0 | 3.0 | 0.00 | 0.07 | 0.00 | 97 | 1008.6 |
| 20260904091551 | 63 | 254 | 0.0 | 2.0 | 0.00 | 0.07 | 0.00 | 97 | 1008.6 |
| 20260904091050 | 63 | 254 | 0.0 | 3.0 | 0.00 | 0.07 | 0.00 | 97 | 1008.7 |
| 20260904090549 | 63 | 255 | 1.0 | 3.0 | 0.00 | 0.07 | 0.00 | 96 | 1008.6 |
| 20260904090049 | 62 | 250 | 0.0 | 3.0 | 0.00 | 0.07 | 0.00 | 96 | 1008.6 |
| 20260904085549 | 62 | 209 | 0.0 | 2.0 | 0.00 | 0.07 | 0.00 | 96 | 1008.6 |
| 20260904085049 | 62 | 207 | 0.0 | 1.0 | 0.00 | 0.07 | 0.00 | 96 | 1008.7 |
| 20260904084557 | 62 | 207 | 0.0 | 1.0 | 0.00 | 0.07 | 0.00 | 96 | 1008.6 |
| 20260904084053 | 62 | 207 | 0.0 | 2.0 | 0.00 | 0.07 | 0.00 | 96 | 1008.5 |
| 20260904083551 | 62 | 207 | 0.0 | 2.0 | 0.00 | 0.07 | 0.00 | 96 | 1008.4 |
| 20260904083052 | 62 | 207 | 1.0 | 2.0 | 0.00 | 0.07 | 0.00 | 96 | 1008.5 |
| 20260904082549 | 62 | 207 | 0.0 | 2.0 | 0.00 | 0.07 | 0.00 | 96 | 1008.6 |
| 20260904082047 | 62 | 207 | 0.0 | 2.0 | 0.00 | 0.07 | 0.00 | 96 | 1008.8 |
| 20260904081547 | 62 | 207 | 0.0 | 2.0 | 0.00 | 0.07 | 0.00 | 96 | 1008.9 |
| 20260904081046 | 62 | 207 | 0.0 | 2.0 | 0.00 | 0.07 | 0.00 | 96 | 1008.9 |
| 20260904080547 | 62 | 206 | 0.0 | 3.0 | 0.00 | 0.07 | 0.00 | 96 | 1008.8 |
| 20260904075545 | 62 | 201 | 0.0 | 0.0 | 0.00 | 0.07 | 0.00 | 96 | 1008.9 |
| 20260904075045 | 62 | 200 | 0.0 | 0.0 | 0.00 | 0.07 | 0.00 | 96 | 1008.9 |
| 20260904074544 | 62 | 200 | 0.0 | 0.0 | 0.00 | 0.07 | 0.00 | 96 | 1008.9 |
| 20260904074048 | 62 | 200 | 0.0 | 0.0 | 0.00 | 0.07 | 0.00 | 96 | 1009.0 |
| 20260904073544 | 62 | 200 | 0.0 | 0.0 | 0.00 | 0.07 | 0.00 | 96 | 1008.9 |
| 20260904073043 | 62 | 200 | 0.0 | 0.0 | 0.00 | 0.07 | 0.00 | 96 | 1009.1 |
| 20260904072543 | 62 | 200 | 0.0 | 0.0 | 0.00 | 0.07 | 0.00 | 96 | 1009.1 |
| 20260904072042 | 62 | 200 | 0.0 | 0.0 | 0.00 | 0.07 | 0.00 | 96 | 1009.1 |
| 20260904071542 | 62 | 200 | 0.0 | 0.0 | 0.00 | 0.07 | 0.00 | 96 | 1009.2 |
| 20260904071041 | 62 | 200 | 0.0 | 0.0 | 0.00 | 0.07 | 0.00 | 96 | 1009.2 |
| 20260904070541 | 62 | 200 | 0.0 | 0.0 | 0.00 | 0.07 | 0.00 | 96 | 1009.3 |
| 20260904070047 | 62 | 200 | 0.0 | 0.0 | 0.00 | 0.07 | 0.00 | 96 | 1009.3 |
| 20260904065538 | 62 | 200 | 0.0 | 0.0 | 0.00 | 0.07 | 0.00 | 96 | 1009.4 |
| 20260904065039 | 61 | 200 | 0.0 | 0.0 | 0.00 | 0.07 | 0.00 | 96 | 1009.3 |
| 20260904064538 | 61 | 200 | 0.0 | 0.0 | 0.00 | 0.07 | 0.00 | 96 | 1009.4 |
| 20260904064042 | 61 | 200 | 0.0 | 0.0 | 0.00 | 0.07 | 0.00 | 96 | 1009.4 |
| 20260904063537 | 61 | 200 | 0.0 | 0.0 | 0.00 | 0.07 | 0.00 | 96 | 1009.4 |
| 20260904063047 | 61 | 200 | 0.0 | 2.0 | 0.00 | 0.07 | 0.00 | 96 | 1009.6 |
| 20260904062535 | 61 | 200 | 0.0 | 2.0 | 0.00 | 0.07 | 0.00 | 96 | 1009.5 |
| 20260904062038 | 61 | 200 | 0.0 | 0.0 | 0.00 | 0.07 | 0.00 | 96 | 1009.6 |
| 20260904061535 | 61 | 200 | 0.0 | 0.0 | 0.00 | 0.07 | 0.00 | 96 | 1009.6 |
| 20260904061035 | 61 | 200 | 0.0 | 0.0 | 0.00 | 0.07 | 0.00 | 96 | 1009.7 |
| 20260904060533 | 61 | 200 | 0.0 | 0.0 | 0.00 | 0.07 | 0.00 | 96 | 1009.7 |
| 20260904060034 | 61 | 200 | 0.0 | 0.0 | 0.00 | 0.07 | 0.00 | 95 | 1009.8 |
| 20260904055534 | 61 | 200 | 0.0 | 0.0 | 0.00 | 0.07 | 0.00 | 95 | 1009.8 |
| 20260904055031 | 61 | 200 | 0.0 | 0.0 | 0.00 | 0.07 | 0.00 | 96 | 1010.0 |
| 20260904054539 | 61 | 200 | 0.0 | 0.0 | 0.00 | 0.07 | 0.00 | 95 | 1010.1 |
| 20260904054032 | 61 | 200 | 0.0 | 0.0 | 0.00 | 0.07 | 0.00 | 95 | 1010.1 |
| 20260904053530 | 61 | 200 | 0.0 | 0.0 | 0.00 | 0.07 | 0.00 | 95 | 1010.3 |
| 20260904053036 | 61 | 200 | 0.0 | 0.0 | 0.00 | 0.07 | 0.00 | 95 | 1010.4 |
| 20260904052530 | 61 | 200 | 0.0 | 0.0 | 0.00 | 0.07 | 0.00 | 95 | 1010.3 |
| 20260904052029 | 61 | 200 | 0.0 | 0.0 | 0.00 | 0.07 | 0.00 | 95 | 1010.4 |
| 20260904051528 | 60 | 200 | 0.0 | 0.0 | 0.00 | 0.07 | 0.00 | 95 | 1010.4 |
| 20260904051033 | 60 | 200 | 0.0 | 0.0 | 0.00 | 0.07 | 0.00 | 95 | 1010.4 |
| 20260904050528 | 60 | 200 | 0.0 | 2.0 | 0.00 | 0.07 | 0.00 | 95 | 1010.3 |
| 20260904050027 | 61 | 200 | 0.0 | 2.0 | 0.00 | 0.07 | 0.00 | 95 | 1010.4 |
| 20260904045528 | 61 | 200 | 1.0 | 2.0 | 0.00 | 0.07 | 0.00 | 95 | 1010.5 |
| 20260904045027 | 61 | 200 | 0.0 | 0.0 | 0.00 | 0.07 | 0.00 | 95 | 1010.5 |
| 20260904044534 | 61 | 200 | 0.0 | 1.0 | 0.00 | 0.07 | 0.00 | 95 | 1010.4 |
| 20260904044029 | 61 | 200 | 0.0 | 1.0 | 0.00 | 0.07 | 0.00 | 95 | 1010.5 |
| 20260904043526 | 61 | 200 | 0.0 | 2.0 | 0.00 | 0.07 | 0.00 | 95 | 1010.5 |
| 20260904043037 | 61 | 200 | 0.0 | 2.0 | 0.00 | 0.07 | 0.00 | 95 | 1010.6 |
| 20260904042527 | 61 | 200 | 1.0 | 2.0 | 0.00 | 0.07 | 0.00 | 95 | 1010.5 |
| 20260904042024 | 61 | 200 | 0.0 | 1.0 | 0.00 | 0.07 | 0.00 | 94 | 1010.7 |
| 20260904041524 | 61 | 200 | 0.0 | 2.0 | 0.00 | 0.07 | 0.00 | 94 | 1010.7 |
| 20260904041023 | 61 | 200 | 0.0 | 2.0 | 0.00 | 0.07 | 0.00 | 94 | 1010.7 |
| 20260904040522 | 61 | 200 | 1.0 | 2.0 | 0.00 | 0.07 | 0.00 | 94 | 1010.7 |
| 20260904040022 | 61 | 201 | 0.0 | 2.0 | 0.00 | 0.07 | 0.07 | 94 | 1010.8 |
| 20260904035524 | 61 | 200 | 0.0 | 2.0 | 0.00 | 0.07 | 0.07 | 94 | 1010.9 |
| 20260904035022 | 61 | 201 | 0.0 | 2.0 | 0.00 | 0.07 | 0.07 | 94 | 1011.0 |
| 20260904034521 | 61 | 200 | 0.0 | 0.0 | 0.00 | 0.07 | 0.07 | 94 | 1011.0 |
| 20260904034022 | 61 | 200 | 0.0 | 0.0 | 0.00 | 0.07 | 0.07 | 94 | 1010.8 |
| 20260904033526 | 61 | 199 | 0.0 | 1.0 | 0.00 | 0.07 | 0.07 | 94 | 1010.9 |
| 20260904033029 | 61 | 199 | 0.0 | 3.0 | 0.00 | 0.07 | 0.07 | 94 | 1010.7 |
| 20260904032520 | 62 | 199 | 0.0 | 3.0 | 0.00 | 0.07 | 0.07 | 94 | 1010.6 |
| 20260904032020 | 62 | 199 | 1.0 | 2.0 | 0.00 | 0.07 | 0.07 | 94 | 1010.5 |
| 20260904031520 | 62 | 199 | 0.0 | 3.0 | 0.00 | 0.07 | 0.07 | 94 | 1010.7 |
| 20260904031019 | 62 | 199 | 1.0 | 3.0 | 0.00 | 0.07 | 0.07 | 94 | 1010.6 |
| 20260904030518 | 62 | 200 | 1.0 | 2.0 | 0.00 | 0.07 | 0.07 | 94 | 1010.7 |
| 20260904030017 | 62 | 200 | 0.0 | 4.0 | 0.00 | 0.07 | 0.07 | 94 | 1010.9 |
| 20260904025517 | 62 | 201 | 1.0 | 4.0 | 0.00 | 0.07 | 0.07 | 94 | 1011.1 |
| 20260904025017 | 62 | 286 | 0.0 | 2.0 | 0.00 | 0.07 | 0.07 | 94 | 1011.1 |
| 20260904024517 | 62 | 287 | 0.0 | 0.0 | 0.00 | 0.07 | 0.07 | 94 | 1011.1 |
| 20260904024017 | 62 | 287 | 0.0 | 0.0 | 0.00 | 0.07 | 0.07 | 94 | 1011.2 |
| 20260904023519 | 62 | 287 | 0.0 | 0.0 | 0.00 | 0.07 | 0.07 | 93 | 1011.2 |
| 20260904023016 | 62 | 287 | 0.0 | 0.0 | 0.00 | 0.07 | 0.07 | 93 | 1011.2 |
| 20260904022517 | 62 | 287 | 0.0 | 2.0 | 0.00 | 0.07 | 0.07 | 93 | 1011.3 |
| 20260904022019 | 62 | 287 | 0.0 | 2.0 | 0.00 | 0.07 | 0.07 | 93 | 1011.3 |
| 20260904021518 | 63 | 287 | 0.0 | 1.0 | 0.00 | 0.07 | 0.07 | 93 | 1011.3 |
| 20260904021015 | 63 | 287 | 0.0 | 1.0 | 0.00 | 0.07 | 0.07 | 93 | 1011.2 |
| 20260904020515 | 63 | 287 | 0.0 | 1.0 | 0.00 | 0.07 | 0.07 | 93 | 1011.2 |
| 20260904020116 | 63 | 287 | 0.0 | 1.0 | 0.00 | 0.07 | 0.07 | 93 | 1011.3 |
| 20260904015519 | 63 | 287 | 0.0 | 2.0 | 0.00 | 0.07 | 0.07 | 93 | 1011.4 |
| 20260904015020 | 63 | 287 | 1.0 | 2.0 | 0.00 | 0.07 | 0.07 | 93 | 1011.3 |
| 20260904014515 | 64 | 287 | 1.0 | 2.0 | 0.00 | 0.07 | 0.07 | 93 | 1011.3 |
| 20260904014017 | 64 | 287 | 1.0 | 3.0 | 0.00 | 0.07 | 0.07 | 93 | 1011.3 |
| 20260904013514 | 64 | 287 | 0.0 | 3.0 | 0.00 | 0.07 | 0.07 | 93 | 1011.5 |
| 20260904013014 | 64 | 312 | 0.0 | 0.0 | 0.00 | 0.07 | 0.07 | 93 | 1011.5 |
| 20260904012514 | 64 | 313 | 0.0 | 0.0 | 0.00 | 0.07 | 0.07 | 93 | 1011.4 |
| 20260904012014 | 64 | 313 | 0.0 | 0.0 | 0.00 | 0.07 | 0.07 | 93 | 1011.5 |
| 20260904011514 | 64 | 313 | 0.0 | 0.0 | 0.00 | 0.07 | 0.07 | 93 | 1011.7 |
| 20260904011018 | 64 | 313 | 0.0 | 1.0 | 0.00 | 0.07 | 0.07 | 93 | 1011.6 |
| 20260904010513 | 64 | 313 | 0.0 | 1.0 | 0.00 | 0.07 | 0.07 | 93 | 1011.6 |
| 20260904010015 | 64 | 313 | 0.0 | 1.0 | 0.00 | 0.07 | 0.07 | 93 | 1011.7 |
| 20260904005513 | 64 | 313 | 0.0 | 0.0 | 0.00 | 0.07 | 0.07 | 93 | 1011.5 |
| 20260904005012 | 64 | 313 | 0.0 | 0.0 | 0.00 | 0.07 | 0.07 | 93 | 1011.4 |
| 20260904004514 | 64 | 313 | 0.0 | 0.0 | 0.00 | 0.07 | 0.07 | 93 | 1011.4 |
| 20260904004012 | 64 | 313 | 0.0 | 0.0 | 0.00 | 0.07 | 0.07 | 93 | 1011.4 |
| 20260904003513 | 64 | 313 | 0.0 | 1.0 | 0.00 | 0.07 | 0.07 | 93 | 1011.4 |
| 20260904003013 | 64 | 313 | 0.0 | 2.0 | 0.00 | 0.07 | 0.07 | 93 | 1011.3 |
| 20260904002513 | 64 | 313 | 0.0 | 2.0 | 0.00 | 0.07 | 0.07 | 93 | 1011.4 |
| 20260904002013 | 64 | 313 | 1.0 | 2.0 | 0.00 | 0.07 | 0.07 | 92 | 1011.7 |
| 20260904001512 | 64 | 313 | 0.0 | 3.0 | 0.00 | 0.07 | 0.07 | 92 | 1011.4 |
| 20260904001011 | 64 | 313 | 1.0 | 3.0 | 0.00 | 0.07 | 0.07 | 92 | 1011.5 |
| 20260904000511 | 64 | 313 | 0.0 | 0.0 | 0.00 | 0.07 | 0.07 | 92 | 1011.1 |
| 20260904000012 | 64 | 313 | 0.0 | 0.0 | 0.00 | 0.07 | 0.07 | 92 | 1011.3 |
| 20260903235510 | 64 | 313 | 0.0 | 0.0 | 0.00 | 0.07 | 0.07 | 92 | 1011.3 |
| 20260903235010 | 64 | 313 | 0.0 | 0.0 | 0.00 | 0.07 | 0.07 | 91 | 1011.2 |
| 20260903234510 | 64 | 313 | 0.0 | 0.0 | 0.00 | 0.07 | 0.07 | 91 | 1011.2 |
| 20260903234010 | 64 | 313 | 0.0 | 0.0 | 0.00 | 0.07 | 0.07 | 91 | 1011.2 |
| 20260903233512 | 64 | 313 | 0.0 | 0.0 | 0.00 | 0.07 | 0.07 | 91 | 1011.3 |
| 20260903233024 | 65 | 313 | 0.0 | 2.0 | 0.00 | 0.07 | 0.07 | 91 | 1011.2 |
| 20260903232510 | 65 | 313 | 0.0 | 2.0 | 0.00 | 0.07 | 0.07 | 91 | 1011.4 |
| 20260903232008 | 65 | 313 | 0.0 | 2.0 | 0.00 | 0.07 | 0.07 | 91 | 1011.4 |
| 20260903231508 | 65 | 313 | 0.0 | 1.0 | 0.00 | 0.07 | 0.07 | 91 | 1011.5 |
| 20260903231007 | 65 | 313 | 0.0 | 1.0 | 0.00 | 0.07 | 0.07 | 91 | 1011.5 |
| 20260903230507 | 65 | 313 | 0.0 | 2.0 | 0.00 | 0.07 | 0.07 | 90 | 1011.5 |
| 20260903230007 | 65 | 313 | 0.0 | 2.0 | 0.00 | 0.07 | 0.07 | 91 | 1011.6 |
| 20260903225510 | 65 | 313 | 0.0 | 2.0 | 0.00 | 0.07 | 0.07 | 91 | 1011.5 |
| 20260903225007 | 65 | 313 | 0.0 | 2.0 | 0.00 | 0.07 | 0.07 | 91 | 1011.5 |
| 20260903224507 | 65 | 313 | 0.0 | 1.0 | 0.00 | 0.07 | 0.07 | 90 | 1011.5 |
| 20260903224007 | 65 | 313 | 0.0 | 1.0 | 0.00 | 0.07 | 0.07 | 90 | 1011.5 |
| 20260903223507 | 65 | 313 | 0.0 | 1.0 | 0.00 | 0.07 | 0.07 | 90 | 1011.5 |
| 20260903223007 | 65 | 313 | 0.0 | 1.0 | 0.00 | 0.07 | 0.07 | 90 | 1011.5 |
| 20260903222508 | 65 | 313 | 0.0 | 1.0 | 0.00 | 0.07 | 0.07 | 90 | 1011.6 |
| 20260903222009 | 65 | 313 | 0.0 | 1.0 | 0.00 | 0.07 | 0.07 | 90 | 1011.6 |
| 20260903221507 | 65 | 313 | 0.0 | 3.0 | 0.00 | 0.07 | 0.07 | 90 | 1011.7 |
| 20260903221009 | 65 | 313 | 0.0 | 3.0 | 0.00 | 0.07 | 0.07 | 90 | 1011.7 |
| 20260903220505 | 65 | 314 | 0.0 | 2.0 | 0.00 | 0.07 | 0.07 | 91 | 1011.7 |
| 20260903220005 | 65 | 314 | 0.0 | 1.0 | 0.00 | 0.07 | 0.07 | 91 | 1011.7 |
| 20260903215505 | 65 | 314 | 0.0 | 1.0 | 0.00 | 0.07 | 0.07 | 91 | 1011.6 |
| 20260903215004 | 65 | 314 | 0.0 | 1.0 | 0.00 | 0.07 | 0.07 | 91 | 1011.5 |
| 20260903214503 | 65 | 314 | 0.0 | 3.0 | 0.00 | 0.07 | 0.07 | 91 | 1011.5 |
| 20260903214003 | 65 | 314 | 0.0 | 3.0 | 0.00 | 0.07 | 0.07 | 91 | 1011.6 |
| 20260903213503 | 65 | 314 | 0.0 | 2.0 | 0.00 | 0.07 | 0.07 | 91 | 1011.6 |
| 20260903213003 | 65 | 315 | 0.0 | 2.0 | 0.00 | 0.07 | 0.07 | 90 | 1011.8 |
| 20260903212502 | 65 | 326 | 0.0 | 3.0 | 0.00 | 0.07 | 0.07 | 90 | 1011.7 |
| 20260903212002 | 65 | 326 | 1.0 | 3.0 | 0.00 | 0.07 | 0.07 | 91 | 1011.6 |
| 20260903211502 | 65 | 351 | 1.0 | 3.0 | 0.00 | 0.07 | 0.07 | 91 | 1011.7 |
| 20260903211001 | 65 | 30 | 1.0 | 3.0 | 0.00 | 0.07 | 0.07 | 91 | 1011.5 |
| 20260903210501 | 65 | 34 | 2.0 | 3.0 | 0.00 | 0.07 | 0.07 | 91 | 1011.6 |
| 20260903210001 | 65 | 44 | 1.0 | 3.0 | 0.00 | 0.07 | 0.07 | 91 | 1011.6 |
| 20260903205502 | 65 | 67 | 1.0 | 3.0 | 0.00 | 0.07 | 0.07 | 92 | 1011.7 |
| 20260903205101 | 65 | 100 | 0.0 | 2.0 | 0.00 | 0.07 | 0.07 | 92 | 1011.7 |
| 20260903204606 | 65 | 100 | 0.0 | 3.0 | 0.00 | 0.07 | 0.07 | 92 | 1011.8 |
| 20260903204058 | 65 | 100 | 0.0 | 3.0 | 0.00 | 0.07 | 0.07 | 92 | 1011.7 |
| 20260903203558 | 65 | 105 | 1.0 | 4.0 | 0.00 | 0.07 | 0.07 | 92 | 1011.7 |
| 20260903203058 | 64 | 110 | 2.0 | 4.0 | 0.00 | 0.07 | 0.07 | 92 | 1011.8 |
| 20260903202558 | 64 | 120 | 1.0 | 4.0 | 0.00 | 0.07 | 0.07 | 92 | 1011.8 |
| 20260903202059 | 64 | 197 | 1.0 | 5.0 | 0.00 | 0.07 | 0.07 | 92 | 1011.8 |
| 20260903201558 | 64 | 339 | 2.0 | 5.0 | 0.00 | 0.07 | 0.07 | 92 | 1011.8 |
| 20260903201056 | 64 | 351 | 2.0 | 4.0 | 0.00 | 0.07 | 0.07 | 92 | 1011.9 |
| 20260903200556 | 64 | 355 | 2.0 | 4.0 | 0.00 | 0.07 | 0.07 | 92 | 1011.9 |
| 20260903200115 | 64 | 355 | 2.0 | 4.0 | 0.00 | 0.07 | 0.07 | 93 | 1011.9 |
| 20260903195559 | 64 | 340 | 1.0 | 4.0 | 0.00 | 0.07 | 0.07 | 93 | 1011.9 |
| 20260903195055 | 64 | 336 | 1.0 | 5.0 | 0.00 | 0.07 | 0.07 | 93 | 1012.0 |
| 20260903194556 | 64 | 328 | 3.0 | 5.0 | 0.00 | 0.07 | 0.07 | 93 | 1012.1 |
| 20260903194054 | 64 | 348 | 1.0 | 4.0 | 0.00 | 0.07 | 0.07 | 93 | 1012.1 |
| 20260903193553 | 64 | 30 | 1.0 | 5.0 | 0.00 | 0.07 | 0.07 | 93 | 1012.2 |
| 20260903193057 | 64 | 16 | 1.0 | 5.0 | 0.00 | 0.07 | 0.07 | 93 | 1012.2 |
| 20260903192553 | 64 | 355 | 1.0 | 4.0 | 0.00 | 0.07 | 0.07 | 93 | 1012.3 |
| 20260903192052 | 64 | 61 | 2.0 | 4.0 | 0.00 | 0.07 | 0.07 | 93 | 1012.3 |
| 20260903191601 | 64 | 120 | 2.0 | 5.0 | 0.00 | 0.07 | 0.07 | 93 | 1012.3 |
| 20260903191050 | 64 | 120 | 2.0 | 5.0 | 0.00 | 0.07 | 0.07 | 94 | 1012.4 |
| 20260903190548 | 64 | 75 | 1.0 | 6.0 | 0.00 | 0.07 | 0.07 | 94 | 1012.4 |
| 20260903190051 | 63 | 86 | 3.0 | 6.0 | 0.00 | 0.07 | 0.07 | 94 | 1012.6 |
| 20260903185548 | 63 | 84 | 2.0 | 6.0 | 0.00 | 0.07 | 0.07 | 93 | 1012.7 |
| 20260903185048 | 63 | 83 | 2.0 | 6.0 | 0.00 | 0.07 | 0.07 | 93 | 1012.8 |
| 20260903184550 | 63 | 115 | 2.0 | 6.0 | 0.00 | 0.07 | 0.07 | 93 | 1012.8 |
| 20260903184050 | 63 | 92 | 1.0 | 6.0 | 0.00 | 0.07 | 0.07 | 94 | 1013.0 |
| 20260903183546 | 63 | 86 | 1.0 | 6.0 | 0.00 | 0.07 | 0.07 | 94 | 1013.1 |
| 20260903183052 | 63 | 109 | 2.0 | 6.0 | 0.00 | 0.07 | 0.07 | 94 | 1013.2 |
| 20260903182548 | 63 | 63 | 1.0 | 7.0 | 0.00 | 0.07 | 0.07 | 94 | 1013.1 |
| 20260903182046 | 63 | 59 | 2.0 | 7.0 | 0.00 | 0.07 | 0.07 | 94 | 1013.1 |
| 20260903181546 | 63 | 114 | 1.0 | 7.0 | 0.00 | 0.07 | 0.07 | 93 | 1013.3 |
| 20260903181045 | 63 | 47 | 1.0 | 7.0 | 0.00 | 0.07 | 0.07 | 93 | 1013.3 |
| 20260903180547 | 63 | 90 | 0.0 | 4.0 | 0.00 | 0.07 | 0.07 | 94 | 1013.4 |
| 20260903180046 | 63 | 80 | 1.0 | 5.0 | 0.00 | 0.07 | 0.07 | 93 | 1013.3 |
| 20260903175544 | 63 | 63 | 1.0 | 6.0 | 0.00 | 0.07 | 0.07 | 93 | 1013.3 |
| 20260903175047 | 63 | 61 | 2.0 | 6.0 | 0.00 | 0.07 | 0.07 | 93 | 1013.2 |
| 20260903174544 | 63 | 86 | 1.0 | 7.0 | 0.00 | 0.07 | 0.07 | 93 | 1013.0 |
| 20260903174044 | 63 | 96 | 2.0 | 6.0 | 0.00 | 0.07 | 0.07 | 94 | 1013.1 |
| 20260903173543 | 63 | 169 | 0.0 | 4.0 | 0.00 | 0.07 | 0.07 | 94 | 1013.2 |
| 20260903173043 | 63 | 72 | 1.0 | 5.0 | 0.00 | 0.07 | 0.07 | 94 | 1013.4 |
| 20260903172547 | 64 | 107 | 1.0 | 5.0 | 0.00 | 0.07 | 0.07 | 94 | 1013.5 |
| 20260903172043 | 64 | 30 | 2.0 | 5.0 | 0.00 | 0.07 | 0.07 | 95 | 1013.4 |
| 20260903171555 | 64 | 43 | 1.0 | 3.0 | 0.00 | 0.07 | 0.07 | 95 | 1013.2 |
| 20260903171040 | 63 | 58 | 1.0 | 4.0 | 0.00 | 0.07 | 0.07 | 95 | 1013.3 |
| 20260903170539 | 63 | 29 | 1.0 | 5.0 | 0.00 | 0.07 | 0.07 | 95 | 1013.3 |
| 20260903170045 | 63 | 56 | 1.0 | 5.0 | 0.00 | 0.07 | 0.07 | 95 | 1013.2 |
| 20260903165539 | 63 | 304 | 1.0 | 4.0 | 0.00 | 0.07 | 0.07 | 95 | 1013.2 |
| 20260903165038 | 63 | 55 | 2.0 | 4.0 | 0.00 | 0.07 | 0.07 | 95 | 1013.3 |
| 20260903164537 | 63 | 153 | 1.0 | 7.0 | 0.00 | 0.07 | 0.07 | 95 | 1013.6 |
| 20260903164037 | 63 | 186 | 1.0 | 4.0 | 0.00 | 0.07 | 0.07 | 95 | 1013.6 |
| 20260903163537 | 63 | 112 | 1.0 | 6.0 | 0.00 | 0.07 | 0.07 | 95 | 1013.6 |
| 20260903163040 | 63 | 93 | 2.0 | 6.0 | 0.00 | 0.07 | 0.07 | 95 | 1013.7 |
| 20260903162535 | 63 | 113 | 0.0 | 5.0 | 0.00 | 0.07 | 0.07 | 95 | 1013.9 |
| 20260903162036 | 63 | 114 | 1.0 | 5.0 | 0.00 | 0.07 | 0.07 | 95 | 1013.8 |
| 20260903161535 | 63 | 98 | 1.0 | 4.0 | 0.00 | 0.07 | 0.07 | 95 | 1013.9 |
| 20260903161033 | 63 | 97 | 1.0 | 4.0 | 0.00 | 0.07 | 0.07 | 96 | 1013.8 |
| 20260903160533 | 63 | 150 | 1.0 | 6.0 | 0.01 | 0.07 | 0.07 | 96 | 1014.0 |
| 20260903160032 | 63 | 313 | 2.0 | 6.0 | 0.01 | 0.07 | 0.07 | 96 | 1014.0 |
| 20260903155534 | 62 | 111 | 1.0 | 4.0 | 0.01 | 0.07 | 0.07 | 96 | 1014.0 |
| 20260903155037 | 62 | 140 | 1.0 | 8.0 | 0.01 | 0.07 | 0.07 | 96 | 1014.2 |
| 20260903154528 | 62 | 98 | 1.0 | 8.0 | 0.01 | 0.07 | 0.07 | 95 | 1014.2 |
| 20260903154027 | 62 | 138 | 2.0 | 5.0 | 0.01 | 0.07 | 0.07 | 95 | 1014.3 |
| 20260903153526 | 62 | 9 | 1.0 | 5.0 | 0.01 | 0.07 | 0.07 | 95 | 1014.4 |
| 20260903153025 | 62 | 117 | 2.0 | 6.0 | 0.02 | 0.07 | 0.07 | 95 | 1014.5 |
| 20260903152525 | 61 | 126 | 2.0 | 4.0 | 0.02 | 0.07 | 0.07 | 95 | 1014.7 |
| 20260903152023 | 61 | 116 | 0.0 | 6.0 | 0.02 | 0.07 | 0.07 | 95 | 1014.6 |
| 20260903151523 | 61 | 116 | 2.0 | 6.0 | 0.02 | 0.07 | 0.07 | 95 | 1014.7 |
| 20260903151023 | 61 | 130 | 0.0 | 4.0 | 0.01 | 0.06 | 0.06 | 95 | 1014.9 |
| 20260903150522 | 61 | 82 | 1.0 | 4.0 | 0.01 | 0.06 | 0.06 | 95 | 1014.8 |
| 20260903150035 | 61 | 204 | 1.0 | 7.0 | 0.02 | 0.06 | 0.06 | 95 | 1014.9 |
| 20260903145523 | 61 | 82 | 1.0 | 7.0 | 0.02 | 0.06 | 0.06 | 95 | 1014.9 |
| 20260903145021 | 61 | 142 | 1.0 | 3.0 | 0.02 | 0.06 | 0.06 | 95 | 1014.9 |
| 20260903144521 | 61 | 171 | 1.0 | 3.0 | 0.02 | 0.06 | 0.06 | 95 | 1015.1 |
| 20260903144021 | 61 | 156 | 1.0 | 4.0 | 0.02 | 0.06 | 0.06 | 95 | 1015.1 |
| 20260903143523 | 61 | 142 | 1.0 | 4.0 | 0.02 | 0.06 | 0.06 | 95 | 1015.0 |
| 20260903143032 | 61 | 104 | 1.0 | 4.0 | 0.01 | 0.05 | 0.05 | 95 | 1015.1 |
| 20260903142520 | 61 | 82 | 1.0 | 6.0 | 0.01 | 0.05 | 0.05 | 95 | 1015.1 |
| 20260903142019 | 61 | 79 | 2.0 | 6.0 | 0.01 | 0.05 | 0.05 | 95 | 1015.1 |
| 20260903141519 | 61 | 90 | 1.0 | 4.0 | 0.01 | 0.05 | 0.05 | 95 | 1015.1 |
| 20260903141018 | 61 | 74 | 1.0 | 3.0 | 0.01 | 0.05 | 0.05 | 95 | 1015.2 |
| 20260903140518 | 61 | 100 | 1.0 | 4.0 | 0.01 | 0.05 | 0.05 | 95 | 1015.2 |
| 20260903140022 | 61 | 80 | 1.0 | 4.0 | 0.00 | 0.04 | 0.04 | 95 | 1015.3 |
| 20260903135521 | 61 | 192 | 1.0 | 3.0 | 0.00 | 0.04 | 0.04 | 95 | 1015.3 |
| 20260903135019 | 61 | 195 | 0.0 | 3.0 | 0.00 | 0.04 | 0.04 | 95 | 1015.2 |
| 20260903134522 | 61 | 194 | 0.0 | 4.0 | 0.00 | 0.04 | 0.04 | 95 | 1015.2 |
| 20260903134021 | 61 | 196 | 1.0 | 4.0 | 0.01 | 0.04 | 0.04 | 95 | 1015.2 |
| 20260903133517 | 61 | 171 | 0.0 | 3.0 | 0.01 | 0.04 | 0.04 | 95 | 1015.2 |
| 20260903133019 | 61 | 144 | 0.0 | 3.0 | 0.01 | 0.04 | 0.04 | 95 | 1015.3 |
| 20260903132516 | 61 | 149 | 0.0 | 1.0 | 0.01 | 0.04 | 0.04 | 95 | 1015.4 |
| 20260903132016 | 61 | 149 | 0.0 | 2.0 | 0.01 | 0.04 | 0.04 | 95 | 1015.4 |
| 20260903131516 | 61 | 150 | 0.0 | 2.0 | 0.01 | 0.04 | 0.04 | 95 | 1015.5 |
| 20260903131015 | 61 | 90 | 1.0 | 3.0 | 0.01 | 0.04 | 0.04 | 95 | 1015.3 |
| 20260903130513 | 61 | 135 | 1.0 | 3.0 | 0.01 | 0.04 | 0.04 | 95 | 1015.5 |
| 20260903130014 | 61 | 175 | 0.0 | 3.0 | 0.01 | 0.04 | 0.04 | 95 | 1015.5 |
| 20260903125511 | 61 | 178 | 1.0 | 3.0 | 0.01 | 0.04 | 0.04 | 95 | 1015.5 |
| 20260903125012 | 61 | 183 | 0.0 | 2.0 | 0.01 | 0.04 | 0.04 | 95 | 1015.6 |
| 20260903124512 | 61 | 185 | 0.0 | 3.0 | 0.01 | 0.04 | 0.04 | 95 | 1015.6 |
| 20260903124009 | 61 | 185 | 0.0 | 5.0 | 0.00 | 0.03 | 0.03 | 95 | 1015.8 |
| 20260903123508 | 61 | 162 | 0.0 | 5.0 | 0.00 | 0.03 | 0.03 | 95 | 1015.9 |
| 20260903123007 | 61 | 184 | 0.0 | 3.0 | 0.00 | 0.03 | 0.03 | 95 | 1016.0 |
| 20260903122513 | 60 | 186 | 0.0 | 2.0 | 0.00 | 0.03 | 0.03 | 95 | 1016.0 |
| 20260903122007 | 60 | 186 | 0.0 | 2.0 | 0.00 | 0.03 | 0.03 | 95 | 1016.1 |
| 20260903121510 | 60 | 186 | 0.0 | 4.0 | 0.00 | 0.03 | 0.03 | 95 | 1016.2 |
| 20260903121009 | 60 | 185 | 0.0 | 4.0 | 0.00 | 0.03 | 0.03 | 95 | 1016.1 |
| 20260903120505 | 60 | 165 | 0.0 | 4.0 | 0.00 | 0.03 | 0.03 | 95 | 1016.0 |
| 20260903120005 | 60 | 192 | 0.0 | 4.0 | 0.00 | 0.03 | 0.03 | 95 | 1016.0 |
| 20260903115508 | 60 | 184 | 1.0 | 3.0 | 0.00 | 0.03 | 0.03 | 95 | 1015.9 |
| 20260903115005 | 60 | 168 | 1.0 | 3.0 | 0.00 | 0.03 | 0.03 | 95 | 1015.8 |
| 20260903114505 | 60 | 134 | 1.0 | 4.0 | 0.00 | 0.03 | 0.03 | 95 | 1015.7 |
| 20260903114004 | 60 | 221 | 1.0 | 4.0 | 0.00 | 0.03 | 0.03 | 95 | 1015.8 |
| 20260903113504 | 60 | 139 | 0.0 | 6.0 | 0.00 | 0.03 | 0.03 | 95 | 1015.6 |
| 20260903113004 | 60 | 163 | 1.0 | 6.0 | 0.00 | 0.03 | 0.03 | 95 | 1015.8 |
| 20260903112503 | 60 | 216 | 0.0 | 5.0 | 0.00 | 0.03 | 0.03 | 95 | 1015.7 |
| 20260903112002 | 60 | 187 | 0.0 | 1.0 | 0.00 | 0.03 | 0.03 | 95 | 1015.8 |
| 20260903111502 | 60 | 188 | 0.0 | 4.0 | 0.01 | 0.03 | 0.03 | 95 | 1016.0 |
| 20260903111002 | 60 | 190 | 0.0 | 4.0 | 0.01 | 0.03 | 0.03 | 95 | 1015.9 |
| 20260903110600 | 60 | 200 | 0.0 | 2.0 | 0.01 | 0.03 | 0.03 | 95 | 1015.8 |
| 20260903110101 | 60 | 200 | 0.0 | 1.0 | 0.02 | 0.03 | 0.03 | 95 | 1015.9 |
| 20260903105559 | 60 | 202 | 0.0 | 1.0 | 0.03 | 0.03 | 0.03 | 95 | 1015.8 |
| 20260903105101 | 60 | 202 | 0.0 | 3.0 | 0.03 | 0.03 | 0.03 | 95 | 1016.0 |
| 20260903104559 | 60 | 200 | 0.0 | 0.0 | 0.03 | 0.03 | 0.03 | 95 | 1015.9 |
| 20260903104057 | 60 | 200 | 0.0 | 2.0 | 0.03 | 0.03 | 0.03 | 95 | 1016.0 |
| 20260903103557 | 60 | 200 | 0.0 | 2.0 | 0.03 | 0.03 | 0.03 | 95 | 1016.1 |
| 20260903103057 | 60 | 200 | 0.0 | 2.0 | 0.03 | 0.03 | 0.03 | 94 | 1016.1 |
| 20260903102557 | 60 | 201 | 0.0 | 4.0 | 0.03 | 0.03 | 0.03 | 95 | 1016.1 |